Precipitable_Water
0.61 0.58 0.55 0.51 0.45 0.42 0.41 0.43 0.45 0.46 0.44 0.46 0.46 0.48 0.50 0.51 0.52 0.50 0.48 0.46 0.43 0.41 0.40 0.38 0.36 0.35 0.34 0.33 0.33 0.33 0.31 0.30 0.26 0.28 0.30 0.32 0.32 0.33 0.34 0.35 0.35 0.35 0.38
0.54 0.51 0.48 0.46 0.43 0.43 0.44 0.45 0.47 0.46 0.46 0.45 0.48 0.49 0.49 0.50 0.49 0.46 0.44 0.42 0.38 0.37 0.37 0.35 0.33 0.30 0.29 0.29 0.29 0.29 0.28 0.29 0.27 0.24 0.26 0.27 0.28 0.30 0.31 0.31 0.31 0.32 0.32
0.50 0.47 0.44 0.43 0.43 0.42 0.43 0.44 0.44 0.45 0.46 0.49 0.48 0.47 0.47 0.47 0.46 0.44 0.43 0.40 0.38 0.36 0.34 0.31 0.29 0.28 0.27 0.27 0.27 0.26 0.26 0.25 0.25 0.24 0.22 0.24 0.24 0.25 0.24 0.27 0.27 0.28 0.29
0.44 0.41 0.41 0.41 0.43 0.43 0.41 0.40 0.40 0.41 0.42 0.43 0.43 0.42 0.39 0.35 0.34 0.35 0.34 0.34 0.33 0.32 0.31 0.30 0.28 0.27 0.26 0.25 0.24 0.23 0.23 0.22 0.22 0.21 0.20 0.20 0.22 0.23 0.23 0.22 0.23 0.26 0.26
0.41 0.39 0.37 0.36 0.37 0.37 0.36 0.35 0.34 0.33 0.30 0.28 0.26 0.26 0.26 0.26 0.26 0.26 0.26 0.27 0.27 0.26 0.27 0.27 0.26 0.26 0.25 0.24 0.22 0.21 0.21 0.20 0.21 0.21 0.20 0.20 0.21 0.21 0.21 0.24 0.23 0.25 0.27
0.36 0.35 0.35 0.35 0.35 0.34 0.33 0.30 0.27 0.25 0.24 0.24 0.23 0.23 0.24 0.24 0.24 0.22 0.22 0.22 0.22 0.22 0.22 0.23 0.23 0.22 0.22 0.22 0.22 0.22 0.22 0.21 0.20 0.21 0.21 0.21 0.21 0.23 0.25 0.25 0.25 0.24 0.21
0.34 0.33 0.34 0.35 0.34 0.31 0.29 0.25 0.23 0.23 0.24 0.22 0.21 0.22 0.22 0.22 0.21 0.21 0.20 0.20 0.20 0.21 0.22 0.22 0.21 0.20 0.21 0.22 0.23 0.24 0.25 0.25 0.26 0.25 0.23 0.24 0.24 0.27 0.28 0.27 0.27 0.26 0.25
0.33 0.33 0.35 0.33 0.31 0.30 0.25 0.25 0.24 0.22 0.20 0.20 0.21 0.21 0.21 0.22 0.23 0.23 0.22 0.22 0.22 0.22 0.22 0.22 0.21 0.21 0.22 0.24 0.23 0.24 0.25 0.27 0.29 0.30 0.30 0.29 0.29 0.30 0.30 0.30 0.29 0.29 0.31
0.33 0.33 0.34 0.32 0.31 0.26 0.25 0.24 0.21 0.21 0.20 0.20 0.21 0.23 0.23 0.24 0.25 0.23 0.21 0.21 0.21 0.21 0.21 0.22 0.22 0.23 0.24 0.25 0.25 0.25 0.26 0.28 0.31 0.32 0.33 0.32 0.32 0.33 0.33 0.33 0.31 0.29 0.27
0.30 0.32 0.31 0.32 0.31 0.27 0.24 0.22 0.22 0.21 0.20 0.23 0.25 0.26 0.25 0.24 0.25 0.23 0.21 0.21 0.20 0.21 0.22 0.23 0.24 0.24 0.26 0.27 0.28 0.27 0.26 0.27 0.29 0.30 0.30 0.32 0.36 0.34 0.34 0.33 0.33 0.29 0.28
0.32 0.33 0.33 0.34 0.30 0.25 0.23 0.23 0.23 0.22 0.24 0.25 0.25 0.25 0.25 0.25 0.23 0.23 0.22 0.21 0.21 0.21 0.21 0.22 0.24 0.28 0.29 0.29 0.29 0.28 0.29 0.30 0.28 0.29 0.29 0.30 0.31 0.33 0.34 0.37 0.36 0.33 0.30
0.37 0.37 0.34 0.33 0.28 0.24 0.24 0.23 0.24 0.23 0.24 0.25 0.24 0.24 0.25 0.25 0.23 0.23 0.21 0.23 0.24 0.22 0.22 0.24 0.28 0.28 0.28 0.28 0.29 0.30 0.29 0.29 0.29 0.29 0.29 0.29 0.30 0.31 0.33 0.35 0.35 0.35 0.35
0.38 0.35 0.34 0.32 0.26 0.26 0.24 0.23 0.23 0.24 0.25 0.24 0.23 0.22 0.22 0.23 0.23 0.24 0.25 0.24 0.24 0.23 0.26 0.28 0.28 0.28 0.28 0.29 0.30 0.29 0.29 0.30 0.28 0.28 0.28 0.29 0.32 0.34 0.35 0.36 0.36 0.36 0.35
0.35 0.33 0.33 0.26 0.25 0.25 0.25 0.25 0.24 0.24 0.24 0.23 0.22 0.21 0.21 0.22 0.22 0.23 0.24 0.24 0.25 0.27 0.27 0.29 0.28 0.28 0.29 0.30 0.29 0.29 0.29 0.29 0.27 0.27 0.28 0.29 0.31 0.31 0.31 0.32 0.31 0.33 0.32
0.31 0.31 0.26 0.24 0.24 0.23 0.24 0.24 0.24 0.26 0.24 0.22 0.21 0.21 0.22 0.20 0.20 0.23 0.24 0.24 0.25 0.26 0.26 0.27 0.26 0.26 0.27 0.27 0.27 0.27 0.27 0.27 0.27 0.28 0.28 0.28 0.28 0.29 0.28 0.29 0.28 0.29 0.28
0.28 0.23 0.23 0.23 0.24 0.24 0.23 0.23 0.26 0.25 0.24 0.22 0.22 0.23 0.22 0.20 0.22 0.24 0.25 0.25 0.26 0.26 0.25 0.24 0.24 0.25 0.25 0.26 0.25 0.26 0.26 0.26 0.26 0.27 0.28 0.28 0.27 0.28 0.27 0.28 0.28 0.28 0.27
0.23 0.22 0.23 0.23 0.24 0.24 0.23 0.23 0.22 0.24 0.24 0.23 0.24 0.22 0.20 0.21 0.23 0.24 0.24 0.25 0.25 0.25 0.23 0.23 0.23 0.24 0.25 0.26 0.26 0.26 0.26 0.26 0.27 0.27 0.27 0.27 0.27 0.28 0.28 0.27 0.28 0.28 0.27
0.21 0.21 0.23 0.24 0.24 0.24 0.24 0.23 0.23 0.21 0.20 0.21 0.24 0.20 0.21 0.23 0.23 0.23 0.24 0.25 0.23 0.24 0.23 0.23 0.23 0.24 0.25 0.25 0.26 0.26 0.27 0.27 0.26 0.26 0.26 0.26 0.27 0.27 0.26 0.26 0.27 0.27 0.28
0.21 0.23 0.24 0.25 0.24 0.24 0.24 0.24 0.23 0.22 0.20 0.20 0.21 0.20 0.23 0.23 0.23 0.23 0.23 0.23 0.22 0.22 0.23 0.23 0.24 0.24 0.22 0.21 0.21 0.22 0.25 0.26 0.26 0.26 0.25 0.25 0.26 0.26 0.25 0.26 0.26 0.27 0.27
0.22 0.23 0.23 0.24 0.23 0.23 0.24 0.23 0.22 0.21 0.19 0.19 0.19 0.18 0.21 0.22 0.21 0.21 0.22 0.22 0.22 0.22 0.22 0.22 0.22 0.21 0.20 0.19 0.18 0.18 0.17 0.18 0.20 0.23 0.25 0.25 0.25 0.26 0.25 0.25 0.25 0.25 0.24
0.23 0.23 0.23 0.23 0.23 0.23 0.23 0.23 0.23 0.21 0.19 0.19 0.19 0.19 0.20 0.21 0.21 0.21 0.21 0.20 0.20 0.19 0.19 0.19 0.19 0.19 0.18 0.19 0.18 0.18 0.17 0.16 0.16 0.16 0.18 0.22 0.24 0.23 0.25 0.25 0.25 0.25 0.24
0.23 0.23 0.23 0.23 0.23 0.23 0.23 0.24 0.23 0.22 0.20 0.19 0.19 0.18 0.19 0.21 0.21 0.21 0.21 0.20 0.19 0.19 0.18 0.18 0.17 0.17 0.17 0.17 0.17 0.16 0.16 0.15 0.15 0.15 0.16 0.17 0.18 0.20 0.22 0.23 0.23 0.24 0.24
0.22 0.23 0.23 0.23 0.23 0.23 0.23 0.24 0.23 0.23 0.21 0.20 0.20 0.18 0.17 0.19 0.21 0.21 0.21 0.21 0.20 0.19 0.17 0.17 0.17 0.16 0.16 0.17 0.17 0.16 0.15 0.14 0.14 0.15 0.14 0.15 0.16 0.16 0.18 0.18 0.18 0.19 0.19
0.22 0.23 0.23 0.23 0.23 0.23 0.23 0.23 0.24 0.23 0.22 0.20 0.20 0.19 0.17 0.17 0.19 0.21 0.22 0.22 0.22 0.20 0.19 0.17 0.16 0.16 0.16 0.16 0.15 0.15 0.14 0.14 0.14 0.14 0.14 0.13 0.13 0.14 0.15 0.15 0.15 0.15 0.16
0.22 0.23 0.23 0.23 0.23 0.23 0.23 0.24 0.23 0.23 0.22 0.21 0.20 0.20 0.18 0.17 0.17 0.18 0.20 0.22 0.22 0.21 0.19 0.18 0.17 0.16 0.16 0.15 0.15 0.14 0.14 0.13 0.12 0.12 0.14 0.14 0.13 0.13 0.13 0.14 0.14 0.14 0.14
0.23 0.23 0.23 0.24 0.24 0.23 0.23 0.23 0.23 0.23 0.22 0.22 0.21 0.20 0.19 0.18 0.17 0.17 0.18 0.19 0.19 0.19 0.18 0.18 0.18 0.17 0.16 0.16 0.15 0.15 0.14 0.14 0.13 0.12 0.14 0.13 0.12 0.12 0.13 0.12 0.12 0.13 0.13
Wind_Speed
43 45 48 50 50 51 51 50 49 49 48 46 44 44 45 45 43 40 36 33 31 30 30 30 31 31 31 32 34 35 36 38 40 40 41 41 42 44 45 46 47 48 49
45 48 50 51 51 51 50 49 49 48 47 46 44 43 43 40 37 34 32 30 30 30 30 31 31 31 32 32 33 34 36 39 41 42 41 42 43 44 45 46 46 47 48
48 50 51 51 51 51 51 50 49 47 45 44 42 40 37 35 33 31 31 31 32 32 33 33 33 33 34 34 35 35 36 36 38 40 41 41 42 43 44 46 46 48 49
50 51 52 52 51 50 49 47 46 45 42 40 37 36 35 34 33 32 32 33 33 34 34 34 33 33 33 33 33 34 34 35 36 37 37 37 39 39 40 41 42 43 45
50 52 51 50 49 48 47 46 44 42 39 36 34 33 32 31 29 31 31 32 32 33 33 32 32 32 33 34 34 33 34 34 34 35 36 35 36 37 38 39 41 42 43
51 50 48 48 48 47 45 43 42 37 35 33 32 32 32 32 32 33 34 34 35 35 34 34 33 33 33 33 33 34 34 34 34 34 34 35 35 35 35 36 37 37 39
50 48 47 47 46 44 42 40 36 34 33 33 33 33 34 34 33 35 35 35 35 34 34 33 33 32 32 32 31 31 32 32 32 33 34 34 35 35 35 35 35 35 36
48 47 45 45 43 41 38 35 33 33 33 33 33 34 34 34 34 35 35 35 34 33 33 33 33 31 30 29 29 28 28 29 30 31 32 32 31 31 32 32 32 34 34
48 45 44 42 39 35 33 33 33 33 33 34 34 34 34 34 35 36 36 35 34 33 32 31 30 29 28 27 26 26 26 27 28 29 31 31 31 31 31 30 30 31 32
45 42 40 37 34 32 32 32 32 33 34 33 34 34 35 35 35 35 33 32 30 29 28 27 26 26 25 23 23 23 24 24 24 23 23 23 25 26 28 29 29 29 29
42 39 36 33 31 30 31 31 33 34 34 33 34 35 34 34 34 32 30 28 26 25 24 23 21 19 17 19 20 20 19 16 15 15 14 14 15 17 19 21 24 26 27
40 37 33 31 29 29 30 31 33 34 33 33 34 33 33 31 30 28 28 26 24 22 20 17 14 14 15 15 14 12 11 10 10 10 10 10 11 13 16 18 20 22 23
38 34 31 28 28 28 30 31 32 32 32 32 32 32 31 29 27 27 26 23 20 16 13 11 10 10 10 9 8 7 7 7 7 8 8 9 10 12 14 15 17 19 21
35 30 26 25 25 27 28 30 30 31 30 31 31 29 29 29 27 25 22 18 14 9 7 5 6 5 5 4 3 3 3 4 5 5 6 8 9 10 11 11 12 14 16
27 23 22 22 24 26 26 27 28 29 30 31 29 29 29 26 24 21 16 12 9 7 5 4 3 3 2 2 2 1 1 3 3 4 6 7 9 10 11 11 9 8 10
21 19 19 21 22 23 24 26 26 27 29 28 27 28 26 24 20 15 11 9 7 6 4 4 3 3 4 4 5 4 4 4 4 5 6 7 8 11 11 11 10 8 6
17 17 18 19 21 21 23 25 25 26 28 26 26 26 24 21 16 11 9 7 7 6 5 4 4 4 4 4 4 5 5 6 5 5 5 6 8 9 11 11 9 9 8
15 16 17 18 19 21 22 23 24 26 27 26 25 24 23 18 12 8 7 6 6 7 6 5 4 4 3 3 4 4 5 6 6 7 6 6 7 8 9 9 10 9 9
14 15 17 18 20 21 21 22 23 25 25 25 23 22 22 16 10 6 6 5 5 6 6 5 4 4 3 4 4 4 5 6 7 7 8 7 6 7 7 8 8 8 8
14 15 16 18 20 21 21 22 22 23 24 23 22 21 20 15 10 7 5 5 5 5 5 6 5 5 4 4 4 5 5 6 7 7 8 8 7 7 7 7 8 8 8
14 15 16 18 20 20 20 21 22 22 23 22 21 20 19 15 11 8 6 5 5 5 5 5 5 5 5 5 5 5 6 6 7 7 7 8 8 8 8 7 7 7 7
15 16 17 18 19 20 20 21 20 21 21 21 21 19 17 15 12 9 7 7 6 6 5 5 5 5 5 5 5 6 6 6 7 7 7 7 8 8 8 8 8 8 7
15 16 17 18 19 20 20 21 20 20 21 21 20 18 17 15 13 10 9 8 7 7 7 6 6 6 6 6 6 6 6 7 7 7 7 7 8 8 8 8 8 8 8
17 17 17 18 18 19 20 21 20 20 20 20 19 18 16 15 13 11 10 9 8 8 8 8 8 7 7 7 7 7 7 8 8 8 8 8 8 8 8 9 9 9 9
16 16 17 17 18 19 20 21 20 20 20 20 19 18 17 15 13 12 11 10 9 8 8 9 9 9 9 9 9 9 9 9 9 9 9 9 9 9 9 10 10 10 10
16 17 17 17 17 18 20 21 20 19 19 20 19 18 17 16 14 13 12 11 10 9 9 9 9 10 10 10 10 10 11 11 10 10 10 10 10 10 11 11 11 11 11
Wind_Direction
310 311 311 311 311 311 311 310 309 308 306 305 303 301 300 299 298 296 294 291 288 287 285 282 280 277 276 273 268 266 265 264 263 261 261 261 260 259 259 259 258 257 256
311 312 312 312 312 313 313 312 310 309 307 305 304 302 301 300 298 296 293 289 288 287 286 284 282 279 277 276 273 270 268 267 265 265 264 264 262 262 261 261 260 258 256
311 313 313 313 313 313 313 312 310 309 308 306 305 303 302 300 298 295 292 290 288 287 286 284 283 280 278 276 274 273 272 270 268 267 266 265 264 263 263 262 260 259 257
313 314 315 315 313 313 314 313 312 311 309 307 305 303 302 300 297 295 293 291 289 288 286 284 283 281 279 277 275 274 273 272 270 269 268 267 266 264 263 262 260 258 257
314 315 315 315 315 314 314 313 313 312 310 309 307 306 304 303 300 299 297 294 292 290 288 286 283 281 279 278 276 274 273 272 271 270 269 268 267 266 264 263 262 260 258
315 315 315 316 316 315 315 314 314 313 312 311 309 308 306 303 301 300 298 295 292 290 288 286 284 282 280 278 276 274 273 273 272 271 270 269 268 267 266 263 261 259 259
316 315 316 316 316 316 316 316 315 314 313 312 310 308 307 304 303 302 300 296 293 290 288 286 284 282 280 279 277 276 275 272 271 271 271 269 269 267 265 263 262 260 258
316 315 315 317 316 316 316 316 316 315 314 313 312 310 309 306 305 304 302 298 295 291 288 285 283 282 279 278 278 277 276 275 273 272 271 270 268 266 263 262 261 261 259
315 314 315 316 316 317 317 317 317 317 316 315 314 313 311 309 308 306 304 300 296 292 289 286 283 279 277 277 276 277 278 278 278 275 273 270 268 265 263 263 262 261 259
315 314 314 315 315 316 317 318 319 319 318 317 317 316 314 312 311 310 307 304 299 295 291 287 282 279 275 274 275 278 282 282 284 282 277 272 268 264 262 259 260 260 259
314 314 313 313 314 316 318 319 320 321 320 320 319 318 316 315 314 313 311 307 302 298 294 290 285 279 275 274 277 278 280 284 287 287 285 281 276 271 267 262 259 258 257
312 311 310 311 313 316 318 320 321 322 322 322 322 322 321 320 319 318 317 312 305 300 296 290 282 282 282 280 277 274 276 284 290 294 294 293 289 284 278 272 266 261 257
311 308 307 309 312 316 319 321 323 325 325 325 325 325 325 324 322 321 319 317 312 305 296 289 285 289 287 281 271 266 274 288 299 302 305 307 308 305 300 286 274 265 258
308 306 306 308 313 317 321 324 326 328 328 328 328 328 328 326 324 325 324 324 322 318 314 303 302 301 297 282 265 261 280 305 316 322 327 331 331 329 326 314 294 273 260
308 307 308 312 316 320 324 327 329 331 332 332 332 332 331 330 329 329 332 335 339 338 333 335 346 5 34 57 56 37 353 347 351 348 345 348 350 349 346 344 329 304 274
310 311 314 317 320 323 327 330 332 334 336 336 337 337 336 335 335 338 344 351 359 2 11 24 39 53 67 61 53 45 30 9 355 353 354 355 358 1 2 2 3 353 330
314 317 320 323 326 328 331 333 335 337 339 339 341 342 343 342 343 348 357 5 14 18 30 38 46 53 54 50 39 33 24 16 0 347 347 352 357 3 10 14 16 20 21
317 320 324 327 330 332 333 335 337 340 342 343 344 346 346 346 347 354 1 11 21 26 30 30 30 28 26 20 14 11 9 9 9 5 349 346 350 355 2 10 15 15 14
320 323 327 330 332 333 334 337 339 341 343 346 346 349 350 349 349 350 357 7 12 17 19 18 13 8 4 1 0 3 5 6 7 5 3 355 347 349 356 360 2 7 6
320 323 328 331 333 335 336 338 340 342 344 347 348 350 352 352 348 338 338 343 349 357 3 6 9 8 5 4 5 5 3 0 360 1 3 4 0 354 351 349 353 357 357
316 321 325 330 333 335 336 338 339 342 345 346 349 350 351 352 345 330 318 319 320 325 334 344 352 0 2 1 356 351 352 353 355 358 0 2 5 4 358 353 350 348 350
315 318 321 327 331 334 336 337 338 341 344 345 347 348 348 350 347 336 314 303 300 302 306 312 321 331 339 344 345 347 346 347 348 349 348 350 356 358 359 0 358 353 348
313 316 318 323 328 331 333 335 335 338 341 342 343 344 345 345 344 339 329 311 296 290 292 293 298 306 314 320 326 329 332 334 333 336 337 339 341 343 345 347 349 349 348
312 313 316 319 324 328 330 332 331 332 335 338 338 338 338 337 337 334 330 320 305 292 286 284 286 292 298 305 311 316 320 321 322 321 323 326 330 332 331 333 333 334 332
313 314 316 318 322 326 329 331 329 329 332 334 334 333 332 331 328 325 323 321 314 302 290 284 283 285 289 295 300 305 309 312 314 314 311 313 316 320 322 323 322 322 324
312 313 315 318 321 325 329 331 330 328 330 332 332 331 327 324 322 318 317 311 310 306 298 289 285 285 286 288 293 297 301 304 305 307 306 305 308 311 313 314 315 314 315